TimeEST,TemperatureF,Dew PointF,Humidity,Sea Level PressureIn,VisibilityMPH,Wind Direction,Wind SpeedMPH,Gust SpeedMPH,PrecipitationIn,Events,Conditions,WindDirDegrees,DateUTC
12:15 AM,3.2,-5.8,66,30.00,-9999.0,WNW,18.4,26.5,N/A,,Clear,290,2013-01-23 05:15:00
12:35 AM,3.2,-5.8,66,30.00,-9999.0,West,15.0,21.9,N/A,,Clear,280,2013-01-23 05:35:00
1:15 AM,3.2,-5.8,66,30.00,-9999.0,WNW,15.0,25.3,N/A,,Mostly Cloudy,290,2013-01-23 06:15:00
1:35 AM,3.2,-5.8,66,29.99,-9999.0,West,13.8,21.9,N/A,,Mostly Cloudy,280,2013-01-23 06:35:00
1:55 AM,3.2,-5.8,66,30.00,-9999.0,West,17.3,20.7,N/A,,Scattered Clouds,280,2013-01-23 06:55:00
2:35 AM,3.2,-5.8,66,30.00,-9999.0,West,16.1,21.9,N/A,,Clear,280,2013-01-23 07:35:00
2:55 AM,3.2,-5.8,66,30.00,-9999.0,WNW,15.0,25.3,N/A,,Clear,290,2013-01-23 07:55:00
3:15 AM,3.2,-5.8,66,30.00,-9999.0,West,18.4,26.5,N/A,,Clear,280,2013-01-23 08:15:00
3:35 AM,3.2,-5.8,66,30.00,-9999.0,West,16.1,27.6,N/A,,Clear,280,2013-01-23 08:35:00
3:55 AM,3.2,-5.8,66,30.00,-9999.0,West,20.7,28.8,N/A,,Clear,280,2013-01-23 08:55:00
4:55 AM,3.2,-5.8,66,29.99,-9999.0,West,19.6,32.2,N/A,,Clear,280,2013-01-23 09:55:00
5:15 AM,3.2,-5.8,66,29.99,-9999.0,West,19.6,26.5,N/A,,Clear,280,2013-01-23 10:15:00
5:35 AM,3.2,-5.8,66,30.00,-9999.0,West,17.3,24.2,N/A,,Clear,280,2013-01-23 10:35:00
5:55 AM,3.2,-5.8,66,30.00,-9999.0,West,18.4,25.3,N/A,,Clear,280,2013-01-23 10:55:00
6:15 AM,3.2,-5.8,66,30.01,-9999.0,WNW,17.3,23.0,N/A,,Clear,290,2013-01-23 11:15:00
6:35 AM,3.2,-5.8,66,30.01,-9999.0,West,16.1,24.2,N/A,,Clear,280,2013-01-23 11:35:00
7:15 AM,1.4,-5.8,72,30.02,-9999.0,West,17.3,23.0,N/A,,Clear,280,2013-01-23 12:15:00
7:35 AM,1.4,-5.8,72,30.03,-9999.0,West,17.3,23.0,N/A,,Clear,280,2013-01-23 12:35:00
7:55 AM,3.2,-5.8,66,30.03,-9999.0,West,12.7,21.9,N/A,,Clear,270,2013-01-23 12:55:00
8:15 AM,3.2,-5.8,66,30.03,-9999.0,West,13.8,19.6,N/A,,Clear,270,2013-01-23 13:15:00
8:35 AM,3.2,-5.8,66,30.03,-9999.0,West,13.8,-,N/A,,Clear,280,2013-01-23 13:35:00
8:55 AM,3.2,-5.8,66,30.04,10.0,West,13.8,23.0,N/A,,Clear,280,2013-01-23 13:55:00
9:15 AM,3.2,-5.8,66,30.04,10.0,West,16.1,23.0,N/A,,Clear,270,2013-01-23 14:15:00
9:35 AM,5.0,-5.8,61,30.05,10.0,West,18.4,23.0,N/A,,Clear,280,2013-01-23 14:35:00
9:55 AM,6.8,-5.8,56,30.05,10.0,West,15.0,-,N/A,,Clear,270,2013-01-23 14:55:00
10:15 AM,6.8,-5.8,56,30.06,10.0,WNW,12.7,23.0,N/A,,Clear,290,2013-01-23 15:15:00
10:35 AM,8.6,-5.8,52,30.07,-9999.0,West,16.1,20.7,N/A,,Clear,280,2013-01-23 15:35:00
10:55 AM,8.6,-5.8,52,30.06,-9999.0,West,12.7,-,N/A,,Mostly Cloudy,280,2013-01-23 15:55:00
11:15 AM,10.4,-5.8,48,30.05,-9999.0,West,13.8,21.9,N/A,,Mostly Cloudy,280,2013-01-23 16:15:00
11:35 AM,12.2,-5.8,45,30.05,-9999.0,WNW,13.8,19.6,N/A,,Mostly Cloudy,290,2013-01-23 16:35:00
11:55 AM,12.2,-5.8,45,30.04,-9999.0,West,16.1,20.7,N/A,,Mostly Cloudy,270,2013-01-23 16:55:00
12:15 PM,12.2,-7.6,41,30.02,-9999.0,West,19.6,25.3,N/A,,Overcast,270,2013-01-23 17:15:00
12:35 PM,14.0,-7.6,38,30.01,-9999.0,WNW,17.3,26.5,N/A,,Overcast,290,2013-01-23 17:35:00
12:55 PM,15.8,-5.8,38,30.00,10.0,West,19.6,28.8,N/A,,Overcast,280,2013-01-23 17:55:00
1:15 PM,15.8,-5.8,38,30.00,0.2,West,16.1,24.2,N/A,,Haze,280,2013-01-23 18:15:00
1:35 PM,15.8,-7.6,35,29.99,0.5,WNW,16.1,24.2,N/A,,Haze,290,2013-01-23 18:35:00
1:55 PM,17.6,-5.8,35,29.99,10.0,West,17.3,26.5,N/A,,Overcast,260,2013-01-23 18:55:00
2:15 PM,17.6,-5.8,35,29.99,10.0,West,17.3,21.9,N/A,,Overcast,280,2013-01-23 19:15:00
2:35 PM,17.6,-5.8,35,29.98,10.0,West,16.1,21.9,N/A,,Overcast,280,2013-01-23 19:35:00
2:55 PM,17.6,-5.8,35,29.98,10.0,West,15.0,19.6,N/A,,Overcast,280,2013-01-23 19:55:00
3:15 PM,17.6,-2.2,42,29.98,10.0,West,19.6,24.2,N/A,,Overcast,270,2013-01-23 20:15:00
3:35 PM,17.6,-2.2,42,29.97,10.0,West,12.7,-,N/A,,Overcast,270,2013-01-23 20:35:00
3:55 PM,17.6,-0.4,45,29.97,10.0,West,16.1,21.9,N/A,,Overcast,270,2013-01-23 20:55:00
4:15 PM,17.6,1.4,49,29.97,10.0,West,16.1,-,N/A,,Overcast,270,2013-01-23 21:15:00
4:35 PM,15.8,3.2,58,29.98,10.0,West,15.0,20.7,N/A,,Overcast,280,2013-01-23 21:35:00
4:55 PM,15.8,5.0,62,29.98,10.0,West,16.1,24.2,N/A,Snow,Light Snow,270,2013-01-23 21:55:00
5:15 PM,15.8,6.8,68,29.97,10.0,West,15.0,26.5,N/A,,Overcast,270,2013-01-23 22:15:00
5:35 PM,15.8,6.8,68,29.97,10.0,West,12.7,17.3,N/A,,Overcast,270,2013-01-23 22:35:00
5:55 PM,15.8,6.8,68,29.97,10.0,West,9.2,-,N/A,Snow,Light Snow,280,2013-01-23 22:55:00
6:15 PM,15.8,6.8,68,29.97,10.0,West,11.5,-,N/A,Snow,Light Snow,280,2013-01-23 23:15:00
6:35 PM,15.8,6.8,68,29.96,10.0,West,8.1,-,N/A,Snow,Light Snow,270,2013-01-23 23:35:00
6:55 PM,15.8,10.4,79,29.94,10.0,West,15.0,19.6,N/A,Snow,Light Snow,270,2013-01-23 23:55:00
7:15 PM,15.8,10.4,79,29.94,10.0,West,12.7,20.7,N/A,,Overcast,270,2013-01-24 00:15:00
7:35 PM,15.8,10.4,79,29.94,10.0,West,13.8,19.6,N/A,Snow,Light Snow,270,2013-01-24 00:35:00
7:55 PM,14.0,10.4,86,29.93,10.0,West,11.5,-,N/A,Snow,Light Snow,270,2013-01-24 00:55:00
8:15 PM,15.8,10.4,79,29.93,7.0,West,12.7,18.4,N/A,Snow,Light Snow,260,2013-01-24 01:15:00
8:35 PM,15.8,10.4,79,29.93,10.0,West,15.0,18.4,N/A,Snow,Light Snow,270,2013-01-24 01:35:00
8:55 PM,15.8,10.4,79,29.92,10.0,West,16.1,20.7,N/A,Snow,Light Snow,270,2013-01-24 01:55:00
9:15 PM,15.8,10.4,79,29.91,7.0,West,11.5,-,N/A,Snow,Light Snow,260,2013-01-24 02:15:00
9:35 PM,15.8,12.2,86,29.91,5.0,West,10.4,-,N/A,Snow,Light Snow,270,2013-01-24 02:35:00
9:55 PM,15.8,12.2,86,29.90,7.0,WSW,12.7,-,N/A,Snow,Light Snow,250,2013-01-24 02:55:00
10:15 PM,15.8,12.2,86,29.90,7.0,West,10.4,-,N/A,Snow,Light Snow,260,2013-01-24 03:15:00
10:35 PM,15.8,12.2,86,29.90,7.0,West,9.2,-,N/A,Snow,Light Snow,260,2013-01-24 03:35:00
10:55 PM,15.8,12.2,86,29.89,5.0,West,11.5,-,N/A,Snow,Light Snow,260,2013-01-24 03:55:00
11:15 PM,15.8,12.2,86,29.89,5.0,West,8.1,-,N/A,Snow,Light Snow,270,2013-01-24 04:15:00
11:35 PM,15.8,12.2,86,29.88,5.0,West,13.8,18.4,N/A,Snow,Light Snow,260,2013-01-24 04:35:00
11:55 PM,17.6,14.0,86,29.86,3.0,West,15.0,18.4,N/A,Snow,Light Snow,260,2013-01-24 04:55:00